Weather in Yakushka

Russia / Ulyanovsk Oblast     54°11′44″N   50°05′07″E
temp.,
°C
wind,
m/s
gust,
m/s
humid.,
%
clouds,
%
prec.,
mm/h
press.,
hPa
HPBL,
m
19 april, mon
mon1901:00+6ne5116289 0.0 1022464
04:00+5ene6127324 0.0 1023494
07:00+3ne7126499 0.0 1024591
10:00+6ene71056100 0.0 1024967
13:00+9ene7950100 0.0 10241636
16:00+8e7950100 0.0 10251409
19:00+7e6115880 0.0 10261233
22:00+5e496188 0.0 1027483
20 april, tue
tue2001:00+4e511577 0.0 1028439
04:00+3e612545 0.0 1029493
07:00+2e612512 0.0 1030629
10:00+5ese710370 0.0 10301021
13:00+9ese79300 0.0 10301380
16:00+10ese6827100 0.0 10281552
19:00+8ese61033100 0.0 1027763
22:00+6ese6144095 0.0 1027572
21 april, wed
wed2101:00+5se61544100 0.0 1027772
04:00+4se71648100 0.0 1026761
07:00+3se81748100 0.0 1024697
10:00+5se81745100 0.0 1024817
13:00+3sse71778100 1.3 1024861
16:00+2sse81788100 3.8 1024792
19:00+2sse71694100 2.9 1024744
22:00+2sse61497100 4.9 1025679
22 april, thu
thu2201:00+3sse61297100 0.2 1024630
04:00+4sse51195100 0.7 1024581
07:00+4sse51095100 0.6 1025542
10:00+5sse51090100 0.6 1025509
13:00+6sse5889100 0.0 1026578
16:00+6sse4791100 0.0 1026459
19:00+7sse4985100 0.0 1027478
22:00+5sse4889100 0.0 1027358
23 april, fri
fri2301:00+5sse3792100 0.0 1027273
04:00+4se3694100 0.0 1027216
07:00+5ese2494100 0.0 1027212
10:00+7se3486100 0.0 1026514
13:00+7ese3385100 0.0 1025552
16:00+9ese447899 0.1 1024768
19:00+8e358497 0.0 1024427
22:00+6ene2390100 0.0 1022126